Location: Aula-Vintri
(58.3875°N, 22.4322°E)
Time: 16:44:08
(UTC+00:00)

Cosmos 1844 - Pass Details

Date: 13 October 2019
Orbit: 821 x 869 km, 70.9° (Epoch: 17 November)

Event Time Altitude Azimuth Distance (km) Brightness Sun altitude
Rises 18:57:07 0° 234° (SW) 3,415 7.1 -26.8°
Reaches altitude 10° 18:59:37 10° 239° (WSW) 2,489 6.4 -27.1°
Maximum altitude 19:05:15 56° 317° (NW) 1,021 4.3 -27.7°
Drops below altitude 10° 19:10:58 10° 36° (NE) 2,524 6.1 -28.4°
Sets 19:13:31 0° 41° (NE) 3,467 6.9 -28.6°
